{"data":{"norad_id":45565,"epoch":"2026-05-24T22:37:50.726208Z","epoch_age_seconds":73797,"freshness":"FRESH","line1":"1 45565U 20025AL  26144.94294822  .00052684  00000+0  47546-3 0  9994","line2":"2 45565  53.0464  24.9991 0007475  81.4298 278.7564 15.67614044337985","mean_motion":15.67614044,"eccentricity":0.0007475,"inclination_deg":53.0464,"raan_deg":24.9991,"arg_perigee_deg":81.4298,"mean_anomaly_deg":278.7564,"bstar":0.00047546,"rev_number":33798,"period_min":91.859345449957,"perigee_km":360.69021444274,"apogee_km":370.77229748541,"semimajor_km":6743.8682559641,"source":"CELESTRAK","updated_at":"2026-05-25T13:38:16.422998Z"}}